Other Public Products
Issued by NWS Grand Forks, ND

Home | Current Version | Previous Version | Text Only | Print | Product List | Glossary On
Versions: 1 2 3 4 5 6 7 8 9 10 11 12 13 14 15 16 17 18 19 20 21 22 23 24 25 26 27 28 29 30 31 32 33 34 35 36 37 38 39 40 41 42 43 44 45 46 47 48 49 50
000
FPUS83 KFGF 271731
OPUFGF
PRAIRIE TO PINES WEATHER ROUNDUP
NATIONAL WEATHER SERVICE EASTERN NORTH DAKOTA/GRAND FORKS ND
1200 PM CDT TUE SEP 27 2016

 **SATELLITE DATA USED TO AUGMENT SKY COVER AT AUTOMATED STATIONS**
 *****  WEATHER ACROSS EASTERN NORTH DAKOTA  *****

CITY           SKY/WX    TMP DP  RH WIND       PRES   REMARKS
GRAND FORKS    MOSUNNY   54  42  64 N21       29.91F
GRAND FORKS AF SUNNY     56  43  61 N12G22    29.91F
GRAND CITY NWS NOT AVBL
BUXTON           N/A     62  51  68 NW16        N/A
DEVILS LAKE    SUNNY     56  37  49 N13       29.96F
FARGO          SUNNY     59  41  51 NW18      29.90F
WAHPETON ARPT  SUNNY     59  34  38 NW16G25   29.89F
$$

 *****  WEATHER ACROSS CENTRAL AND WESTERN NORTH DAKOTA  *****

CITY           SKY/WX    TMP DP  RH WIND       PRES   REMARKS
JAMESTOWN      SUNNY     61  34  36 NW17      29.95F
BISMARCK       SUNNY     62  39  42 CALM      30.00F
MINOT          SUNNY     62  37  39 W3        29.99S
MINOT AFB      SUNNY     62  38  41 N5        29.98S
GARRISON         N/A     63  38  39 VRB3      29.99F
WILLISTON      SUNNY     62  47  57 SE3       29.97F
DICKINSON      SUNNY     67  48  50 W6        29.99F
HETTINGER      SUNNY     70  46  42 W6        30.02F
$$

 *****  OTHER OBSERVATIONS NORTHEAST NORTH DAKOTA  *****

CITY           SKY/WX    TMP DP  RH WIND       PRES   REMARKS
WALHALLA       FAIR      52  48  87 N13G21    29.93F
LANGDON        FAIR      57  43  58 NW17      29.93F
CAVALIER       PTSUNNY   54  43  66 N17G25    29.92S
GRAFTON        FAIR      54  45  71 N17G26    29.92F
CANDO          FAIR      63  36  36 N14       29.98F
FORT TOTTEN      N/A     59  39  48 NW6       29.95S
ROLLA          FAIR      57  32  38 N15       29.98S
RUGBY          FAIR      59  37  44 NW8       29.97F
 ***** THE ABOVE OBSERVATIONS ARE NON NWS ARE NOT QUALITY
        CONTROLLED AND MAY MIS-REPORT RAIN FOR SNOW...
$$

 *****  OTHER OBSERVATIONS SOUTHEAST NORTH DAKOTA *****

CITY           SKY/WX    TMP DP  RH WIND       PRES   REMARKS
COOPERSTOWN    FAIR      59  37  44 N18       29.93F
VALLEY CITY    FAIR      59  36  41 NW16G22   29.95F
OAKES          NOT AVBL
GWINNER        FAIR      63  34  34 NW16G22   29.93F
SHEYENNE NWR     N/A     61  34  36 NW13      29.95
BUFFALO          N/A     60  30  32 NW14G26     N/A
WYNDMERE         N/A     63  36  36 NW12        N/A
 ***** THE ABOVE OBSERVATIONS ARE NON NWS ARE NOT QUALITY
       CONTROLLED AND MAY MIS-REPORT RAIN FOR SNOW...
$$

  *****  WEATHER ACROSS NORTHERN MINNESOTA  *****

CITY           SKY/WX    TMP DP  RH WIND       PRES   REMARKS
FLAG ISLAND    LGT RAIN  46  43  87 N20       29.81S
WARROAD        CLOUDY    48  43  81 N15       29.84R
ROSEAU         CLOUDY    52  45  76 N12G20    29.84R
HALLOCK        CLOUDY    52  45  76 NW17G25   29.89R
THF RVR FALLS  CLOUDY    50  42  74 NW23      29.87S
HALSTAD          N/A     56  43  61 N18         N/A
FOSSTON        CLOUDY    48  41  76 NW17G25   29.86S
BAUDETTE       LGT RAIN  47  44  90 N14       29.80R
WASKISH        DRIZZLE   46  45  93 NW10G17   29.80S
CROOKSTON      CLOUDY    54  43  66 N23       29.89F
$$
  *****  WEATHER ACROSS CENTRAL AND WEST MINNESOTA  *****

CITY           SKY/WX    TMP DP  RH WIND       PRES   REMARKS
BEMIDJI        CLOUDY    47  43  84 NW13G21   29.81R
PARK RAPIDS    CLOUDY    51  40  65 NW14      29.82S
WADENA         CLOUDY    52  41  66 NW15G23   29.84F
DETROIT LAKES  MOSUNNY   52  41  66 N18G24    29.88S
MOORHEAD       SUNNY     57  41  54 N18       29.90F
FERGUS FALLS   SUNNY     57  41  54 NW20G25   29.90F
ELBOW LAKE     FAIR      57  39  51 W17G25    29.88F
MORRIS MN      SUNNY     63  36  36 NW17G29   29.87F
STAPLES        CLOUDY    52  39  62 NW17      29.82F
WHEATON        SUNNY     63  37  39 NW16G24   29.92F
$$
  *****  WEATHER ELSEWHERE ACROSS MINNESOTA  *****

CITY           SKY/WX    TMP DP  RH WIND       PRES   REMARKS
DULUTH         LGT RAIN  51  46  83 NW14G24   29.69S
INTRNTL FALLS  LGT RAIN  47  44  90 NW14      29.76R
ELY            LGT RAIN  46  45  93 NW8       29.68R
CLOQUET        LGT RAIN  50  45  81 NW10G17   29.72S
BRAINERD       CLOUDY    51  42  71 NW17G24   29.80S
HIBBING        LGT RAIN  47  44  90 NW20G25   29.72R
ALEXANDRIA     SUNNY     57  40  52 NW25G33   29.87F
SAINT CLOUD    CLOUDY    55  43  63 NW17G24   29.82F
MINNEAPOLIS    CLOUDY    57  42  57 NW18G26   29.81F
$$

  *****  WEATHER ACROSS SOUTH DAKOTA  *****

CITY           SKY/WX    TMP DP  RH WIND       PRES   REMARKS
SIOUX FALLS    SUNNY     68  40  35 W16G22    29.96F
BROOKINGS      NOT AVBL
WATERTOWN      SUNNY     63  36  36 NW14      29.94F
HURON          SUNNY     68  39  34 NW12      29.96F
SISSETON         N/A     63  35  35 N17G23    29.91F
ABERDEEN       SUNNY     67  34  29 NW14      29.96F
MITCHELL       SUNNY     70  41  34 NW10      29.99F
PIERRE         SUNNY     69  44  40 W8        29.98F
MOBRIDGE       SUNNY     66  40  38 W6        29.97F
RAPID CITY     SUNNY     74  43  32 VRB5      30.06F
$$

  *****  SOME WEATHER IN NEARBY STATES *****

CITY           SKY/WX    TMP DP  RH WIND       PRES   REMARKS
GLASGOW MT     SUNNY     65  48  54 VRB3      29.96S
GREAT FALLS MT SUNNY     75  43  31 SW18      30.04S
CHEYENNE WY    SUNNY     74  25  16 N8        30.26S
SCOTTSBLUFF NE SUNNY     68  46  45 NW7       30.16F
OMAHA NE       SUNNY     72  44  36 W7        30.00F
DES MOINES IA  MOSUNNY   71  40  32 W18G25    29.94F
DAVENPORT IA   SUNNY     69  31  24 W20G29    29.88F
CHICAGO IL     MOSUNNY   66  32  28 W25G33    29.78F
EAU CLAIRE WI  CLOUDY    54  44  69 W14       29.74F
LA CROSSE WI   CLOUDY    63  43  48 W21       29.77F
$$

  *****  SOME NATIONAL WEATHER *****

CITY           SKY/WX    TMP DP  RH WIND       PRES   REMARKS
LA GUARDIA NY  PTSUNNY   72  58  61 NW3       29.91F
RALEIGH NC     LGT RAIN  77  66  68 CALM      29.96F
ATLANTA GA     PTSUNNY   85  66  53 W8        29.97F
NEW ORLEANS LA PTSUNNY   85  73  67 N9        29.97F HX  91
OKLAHOMA CITY  MOSUNNY   74  47  38 W7        30.14F
ALBUQUERQUE NM MOSUNNY   63  36  36 NW5       30.34R
SALT LAKE CITY MOSUNNY   68  47  46 CALM      30.23S
LOS ANGELES CA MOSUNNY   90  40  17 NE6       29.87R
BOISE ID       SUNNY     70  42  36 CALM      30.13S
SEATTLE WA     PTSUNNY   61  48  62 N13       30.20R
$$

*** WEATHER ACROSS MANITOBA...SASKATCHEWAN AND ONTARIO ***
                ***ONTARIO***

CITY           SKY/WX    TMP DP  RH WIND       PRES   REMARKS
GERALDTON      DRIZZLE   52  50  93 NE9       29.55R FOG
THUNDER BAY    PTSUNNY   54  48  82 NW8       29.55R
SIOUX LOOKOUT  DRIZZLE   46  45  93 N8        29.70S FOG
TORONTO        PTSUNNY   70  39  32 SW21      29.74F
BIG TROUT LK   CLOUDY    52  52 100 NE7       29.79R
PICKLE LAKE    DRIZZLE   48  48 100 N6        29.70R
DRYDEN         CLOUDY    46  43  87 N10       29.73S
KENORA         LGT RAIN  45  43  93 N10G18    29.79S FOG
$$
                *** MANITOBA***

CITY           SKY/WX    TMP DP  RH WIND       PRES   REMARKS
BRANDON        MOSUNNY   59  37  44 N8        29.96F
DAUPHIN        SUNNY     54  43  66 NW7       29.98F
ISLAND LAKE    DRIZZLE   45  45 100 N13G20    29.91R FOG
PILOT MOUND      N/A     54  41  62 NW14        N/A
THE PAS        MOSUNNY   50  41  71 N7        29.99S
THOMPSON       DRIZZLE   45  37  76 N6        30.00S
WINNIPEG       PTSUNNY   54  45  71 N16G24    29.89F
LYNN LAKE      CLOUDY    36  36 100 SE9       30.00F FOG
CHURCHILL      CLOUDY    43  41  93 NE15      30.03R FOG
GILLAM         CLOUDY    45  41  87 NE18      29.95S
$$
                ***SASKATCHEWAN***

CITY           SKY/WX    TMP DP  RH WIND       PRES   REMARKS
ESTEVAN        MOSUNNY   64  39  39 SE7       29.97F
KINDERSLEY     MOSUNNY   63  46  55 VRB2      29.82S
LLOYDMINSTER   MOSUNNY   59  45  58 N23G30    29.85R
PRINCE ALBERT  MOSUNNY   64  43  45 S12G21    29.88F
REGINA         SUNNY     64  43  45 SE18      29.92F
YORKTON        SUNNY     61  41  48 SE3       29.98S  C1F1C2F2C3F3C4F4C5F5C6F6C7F7C8F8C9F9CaFaCbFbCcFcCdFdCe!


USA.gov is the U.S. government's official web portal to all federal, state and local government web resources and services.